Regional Weather Roundup
Issued by NWS Raleigh/Durham, NC

Home | Current Version | Previous Version | Text Only | Print | Product List | Glossary On
Versions: 1 2 3 4 5 6 7 8 9 10 11 12 13 14 15 16 17 18 19 20 21 22 23 24 25 26 27 28 29 30 31 32 33 34 35 36 37 38 39 40 41 42 43 44 45 46 47 48 49 50
000
ASUS42 KRAH 041710
RWRRAH
NORTH CAROLINA WEATHER ROUNDUP
NATIONAL WEATHER SERVICE RALEIGH NC
100 PM EDT SAT JUL 04 2015

NOTE: "FAIR" INDICATES FEW OR NO CLOUDS BELOW 12,000 FEET WITH NO
SIGNIFICANT WEATHER AND/OR OBSTRUCTIONS TO VISIBILITY.

NCZ001-053-055-056-065-067-041800-
WESTERN NORTH CAROLINA

CITY           SKY/WX    TMP DP  RH WIND       PRES   REMARKS
ASHEVILLE      CLOUDY    73  66  78 VRB5      30.10S
JEFFERSON      CLOUDY    71  58  64 W9G17     30.11R
MORGANTON      PTSUNNY   80  65  59 SW8       30.07S
HICKORY        PTSUNNY   82  66  58 S12       30.03S
RUTHERFORDTON  NOT AVBL
MOUNT AIRY     PTSUNNY   82  69  66 SW6       30.02S
BOONE          PTSUNNY   70  59  67 W15       30.12S
$$

NCZ021-022-025-041-071-084-088-041800-
CENTRAL NORTH CAROLINA

CITY           SKY/WX    TMP DP  RH WIND       PRES   REMARKS
CHARLOTTE      CLOUDY    82  64  54 W12G23    30.04R
GREENSBORO     CLOUDY    81  68  64 SW9       30.01S
WINSTON-SALEM  PTSUNNY   80  67  64 SW8       30.02S
RALEIGH-DURHAM PTSUNNY   81  70  69 W8        29.99S
FORT BRAGG     MOSUNNY   86  70  58 SW14G24   29.99S
FAYETTEVILLE   MOSUNNY   86  68  54 SW14G23   30.00S
BURLINGTON     CLOUDY    83  69  62 W10       29.99S
LAURINBURG     PTSUNNY   86  67  52 W20G26    30.03S HAZE
$$

NCZ011-015-027-028-043-044-047-080-103-041800-
NORTHEASTERN NORTH CAROLINA

CITY           SKY/WX    TMP DP  RH WIND       PRES   REMARKS
ROCKY MT-WILSO PTSUNNY   85  72  65 S13       29.96F
GREENVILLE     MOSUNNY   88  72  58 W8G20     29.98F
WASHINGTON     PTSUNNY   86  71  60 SW14G25   29.97S
ELIZABETH CITY MOSUNNY   85  71  63 SW13      29.94S
MANTEO         MOSUNNY   85  70  60 W16G24    29.95S
CAPE HATTERAS  MOSUNNY   83  72  69 SW13G22   29.99S
$$

NCZ078-087-090-091-093-098-101-041800-
SOUTHEASTERN NORTH CAROLINA

CITY           SKY/WX    TMP DP  RH WIND       PRES   REMARKS
LUMBERTON      CLOUDY    86  70  58 SW15      30.03R
GOLDSBORO      MOSUNNY   87  71  58 SW18G24   29.96S
KINSTON        MOSUNNY   88  70  55 SW17G24   29.99S
KENANSVILLE    CLOUDY    86  67  53 SW9G20    30.01S
NEW BERN       PTSUNNY   87  69  54 W13G21    30.00S
CHERRY POINT   PTSUNNY   88  68  51 SW16G28   30.01R
BEAUFORT       MOSUNNY   84  72  67 SW18G24   30.02R
JACKSONVILLE   CLOUDY    86  67  52 W13G29    30.01S
WILMINGTON     PTSUNNY   90  69  50 W17G28    30.03S
$$




USA.gov is the U.S. government's official web portal to all federal, state and local government web resources and services.